Regional Weather Roundup
Issued by NWS

Home | Current Version | Previous Version | Graphics & Text | Print | Product List | Glossary On
Versions: 1 2 3 4 5 6 7 8 9 10 11 12 13 14 15 16 17 18 19 20 21 22 23 24 25 26 27 28 29 30 31 32 33 34 35 36 37 38 39 40 41 42 43 44 45 46 47 48 49 50
000
ASUS43 KFSD 261302
RWRSD

WEATHER ROUNDUP FOR SOUTH DAKOTA
NATIONAL WEATHER SERVICE SIOUX FALLS SD
800 AM CDT FRI AUG 26 2016

NOTE: "FAIR" INDICATES FEW OR NO CLOUDS BELOW 12,000 FEET WITH NO
SIGNIFICANT WEATHER AND/OR OBSTRUCTIONS TO VISIBILITY.


SDZ001>005-009-010-012>017-261400-
NORTHWEST AND NORTH CENTRAL SOUTH DAKOTA

CITY           SKY/WX    TMP DP  RH WIND       PRES   REMARKS
FAITH            N/A     54  51  90 S13       30.15S
MOBRIDGE       MOSUNNY   55  49  80 S6        30.13S
$$

SDZ012>016-024>037-041>051-057-063-072>074-261400-
SOUTHWEST AND SOUTH CENTRAL SOUTH DAKOTA

CITY           SKY/WX    TMP DP  RH WIND       PRES   REMARKS
RAPID CTY ARPT RAIN      52  51  97 W10       30.15F
PIERRE         CLOUDY    53  50  89 CALM      30.15F
CUSTER         CLOUDY    47  45  93 N5        30.19S
ELLSWORTH AFB  MOCLDY    53  53 100 S5        30.15
PHILIP         LGT RAIN  55  54  96 NW8       30.17R
PINE RIDGE     LGT RAIN  53  52  96 CALM      30.17R
WINNER         CLOUDY    56  52  86 E3        30.17F
$$

SDZ004>011-016>023-039-040-261400-
NORTHEAST SOUTH DAKOTA

CITY           SKY/WX    TMP DP  RH WIND       PRES   REMARKS
ABERDEEN       SUNNY     48  44  86 S5        30.17R
WATERTOWN      SUNNY     52  49  89 CALM      30.17S
BROOKINGS      SUNNY     51  49  92 CALM      30.19S
$$

SDZ017-020-022-023-036>040-048>070-261400-
SOUTHEAST SOUTH DAKOTA

CITY           SKY/WX    TMP DP  RH WIND       PRES   REMARKS
SIOUX FALLS    CLOUDY    54  53  97 CALM      30.19S
HURON          SUNNY     51  48  89 CALM      30.17S
CHAMBERLAIN    CLOUDY    53  50  92 CALM      30.17F
MITCHELL       SUNNY     51  49  92 VRB3G28   30.19S
YANKTON        MOSUNNY   52  48  87 N3        30.17S
$$

ABBREVIATIONS USED IN REMARKS
   TC - TEMPERATURE IN CELSIUS
  WCI - WIND CHILL INDEX
   HX - HEAT INDEX
  VSB - VISIBILITY




USA.gov is the U.S. government's official web portal to all federal, state and local government web resources and services.